Qamanaarsuup Sermia

KL  EN  DA
ASIAQ
Weather Now GREENLAND SURVEY
Updated [WGT/WGST] Temperature [°C] Wind [m/s] Air pressure [hPa] Relative humidity [%] Precipitation [mm]
Present Wind chill Speed Max
24.09 03:00-2,30,02,5 ⇖n/a94745n/a
24.09 02:00-1,70,04,4 ⇖n/a94842n/a
24.09 01:00-1,80,04,5 ⇖n/a94940n/a
24.09 00:00-1,90,05,2 ⇖n/a94941n/a
23.09 23:00-2,80,04,8 ⇖n/a95041n/a
23.09 22:00-3,30,05,0 ⇖n/a95039n/a
23.09 21:00-3,60,03,8 ⇖n/a95145n/a
23.09 20:00-3,10,02,0 ⇐n/a95146n/a
23.09 19:00-3,30,05,1 ⇖n/a95145n/a
23.09 18:00-3,30,06,3 ⇖n/a95243n/a
23.09 17:00-2,80,06,8 ⇖n/a95342n/a
23.09 16:00-3,20,06,1 ⇐n/a95345n/a
23.09 15:00-3,40,04,6 ⇖n/a95445n/a
23.09 14:00-4,30,05,8 ⇖n/a95448n/a
23.09 13:00-5,00,09,2 ⇖n/a95548n/a
23.09 12:00-6,10,08,2 ⇖n/a95650n/a
23.09 11:00-7,10,09,7 ⇖n/a95652n/a
23.09 10:00-8,00,09,8 ⇖n/a95655n/a
23.09 09:00-8,80,09,3 ⇖n/a95657n/a
23.09 08:00-9,40,07,8 ⇖n/a95656n/a
23.09 07:00-9,30,07,9 ⇖n/a95656n/a
23.09 06:00-9,00,07,0 ⇖n/a95655n/a
23.09 05:00-8,90,07,3 ⇖n/a95556n/a
23.09 04:00-8,40,06,9 ⇖n/a95555n/a
23.09 03:00-7,80,06,3 ⇖n/a95554n/a
Position: (64.4822,-49.54)

[Back]